This demonstration page uses our WeatherBlox Daily Observations layout. Learn more.

Left ArrowRight Arrow

41.12389, -100.76542

Hourly Observations for March 31, 2020

Temp ( °F °C ) Dew Point ( °F °C ) Humidity (%) Winds ( mph kmh ) Pressure ( in mb ) Visibility ( mi km ) Precip ( " mm )
12:50 am 00:50 Cloudy 45 7 43 6 93 93 SSE 3 6 30.07 1018 10 16 0.00 0.00
12:53 am 00:53 Cloudy 45 7.2 42 5.6 90 90 SE 3 6 30.03 1017 10 16 0.00 0.00
1:25 am 01:25 Mostly Cloudy 42 5.6 40 4.4 92 92 SSE 3 6 30.08 1019 10 16 0.00 0.00
1:44 am 01:44 Partly Cloudy with Mist and Fog 41 5 39 3.9 93 93 Calm 30.09 1019 2 3 0.00 0.00
1:53 am 01:53 Partly Cloudy with Mist and Fog 40 4.4 38 3.3 93 93 Calm 30.04 1017 3 5 0.00 0.00
2:43 am 02:43 Mostly Clear with Mist and Fog 38 3.3 36 2.2 93 93 S 3 6 30.10 1019 2 3 0.00 0.00
2:47 am 02:47 Mostly Clear with Mist and Fog 37 3 36 2 93 93 S 3 6 30.10 1019 1 1 0.00 0.00
2:53 am 02:53 Clear with Mist and Fog 37 2.8 35 1.7 93 93 S 3 6 30.03 1017 1 1 0.00 0.00
3:08 am 03:08 Clear with Mist and Fog 36 2.2 34 1.1 93 93 SSE 3 6 30.10 1019 1 2 0.00 0.00
3:15 am 03:15 Mostly Cloudy with Mist and Fog 37 2.8 34 1.1 89 89 S 3 6 30.09 1019 1 1 0.00 0.00
3:25 am 03:25 Mostly Cloudy with Mist and Fog 38 3.3 36 2.2 93 93 S 3 6 30.09 1019 2 3 0.00 0.00
3:27 am 03:27 Mostly Cloudy with Mist and Fog 39 3.9 37 2.8 93 93 S 3 6 30.08 1019 3 5 0.00 0.00
3:53 am 03:53 Cloudy 40 4.4 38 3.3 93 93 S 3 6 30.02 1017 10 16 0.00 0.00
4:13 am 04:13 Cloudy 41 5 39 3.9 93 93 S 3 6 30.07 1018 10 16 0.00 0.00
4:53 am 04:53 Cloudy 42 5.6 40 4.4 92 92 Calm 30.01 1016 10 16 0.00 0.00
5:53 am 05:53 Cloudy 45 7.2 42 5.6 90 90 WSW 8 13 30.01 1016 10 16 0.00 0.00
6:53 am 06:53 Cloudy 43 6.1 41 5 93 93 SSW 6 9 30.01 1016 10 16 0.00 0.00
7:28 am 07:28 Partly Cloudy 42 5.6 39 3.9 89 89 SW 7 11 30.04 1017 10 16 0.00 0.00
7:53 am 07:53 Mostly Sunny 41 5 38 3.3 89 89 WSW 5 7 30.01 1016 10 16 0.00 0.00
8:23 am 08:23 Mostly Cloudy 43 6.1 40 4.4 89 89 WSW 7 11 30.05 1017 10 16 0.00 0.00
8:53 am 08:53 Cloudy 43 6.1 40 4.4 89 89 SW 7 11 30.01 1016 10 16 0.00 0.00
9:24 am 09:24 Mostly Cloudy 45 7.2 42 5.6 90 90 WSW 8 13 30.02 1017 10 16 0.00 0.00
9:43 am 09:43 Partly Cloudy 45 7.2 41 5 86 86 SW 8 13 30.02 1017 10 16 0.00 0.00
9:53 am 09:53 Mostly Sunny 47 8.3 42 5.6 83 83 WSW 6 9 29.99 1016 10 16 0.00 0.00
10:53 am 10:53 Sunny 52 11.1 42 5.6 69 69 WSW 8 13 29.99 1016 10 16 0.00 0.00
11:53 am 11:53 Sunny 59 15 42 5.6 54 54 SW 9 15 29.95 1014 10 16 0.00 0.00
12:53 pm 12:53 Sunny 66 18.9 39 3.9 37 37 SW 16 26 29.90 1012 10 16 0.00 0.00
1:53 pm 13:53 Mostly Cloudy 66 18.9 34 1.1 30 30 WSW 14 22 29.87 1012 10 16 0.00 0.00
2:53 pm 14:53 Mostly Cloudy 70 21.1 29 -1.7 22 22 W 22 35 29.83 1010 10 16 0.00 0.00
3:53 pm 15:53 Partly Cloudy 71 21.7 29 -1.7 21 21 W 18 30 29.80 1009 10 16 0.00 0.00
4:53 pm 16:53 Mostly Cloudy 72 22.2 31 -0.6 22 22 WNW 16 26 29.78 1008 10 16 0.00 0.00
5:53 pm 17:53 Mostly Cloudy 71 21.7 30 -1.1 22 22 W 14 22 29.77 1008 10 16 0.00 0.00
6:53 pm 18:53 Mostly Cloudy 68 20 33 0.6 27 27 NW 9 15 29.78 1008 10 16 0.00 0.00
7:53 pm 19:53 Cloudy 66 18.9 31 -0.6 27 27 NNW 7 11 29.78 1009 10 16 0.00 0.00
8:53 pm 20:53 Mostly Cloudy 62 16.7 33 0.6 34 34 S 9 15 29.78 1008 10 16 0.00 0.00
9:53 pm 21:53 Mostly Cloudy 59 15 35 1.7 41 41 SSW 8 13 29.78 1009 10 16 0.00 0.00
10:53 pm 22:53 Clear 51 10.6 36 2.2 56 56 S 6 9 29.79 1009 10 16 0.00 0.00
11:53 pm 23:53 Mostly Clear 54 12.2 37 2.8 53 53 SSW 14 22 29.77 1008 10 16 0.00 0.00

Powered by AerisWeather